[[{"header":{"parameterUnit":"m.s-1","parameterCategory":1,"la1":30.2991,"la2":30.254,"lo1":-89.0895,"lo2":-89.0444,"dy":0.0017,"dx":0.0017,"nx":28,"ny":28,"refTime":"2024-06-22T09:00:00:Z","depth":0,"parameterNumber":2,"parameterNumberName":"U-component_of_WINDS"},"data":[0,0,0,0,0,0,0,0,0,0,0,0,0,0,0,0,0,0,0,0,0,0,0,0,0,0,0,0,0,0,0,0,0,0,0,0,0,0,0,0,0,0,0,0,0,0,0,0,0,0,0,0,0,0,0,0,0,0,1.6985,1.6986,0,1.7047,1.7048,1.7049,1.7041,1.704,1.7039,1.7038,1.71,1.7102,1.7105,0,0,0,0,0,0,0,0,0,0,0,0,0,1.6857,1.686,1.6985,1.6986,1.6987,1.7047,1.7048,1.7049,1.7041,1.704,1.7039,1.7038,1.7099,1.7102,1.7105,0,0,0,0,0,0,0,0,0,0,0,0,0,1.6915,1.6861,1.6985,1.6991,1.6992,1.7047,1.7048,1.7049,1.7042,1.704,1.7039,1.7037,1.7098,1.7102,1.7105,1.7159,0,0,1.7117,1.7119,0,0,0,0,0,0,0,0,1.6912,1.692,1.6989,1.699,1.6992,1.7035,1.7025,1.7086,1.7042,1.7023,1.7038,1.7036,1.7079,1.7084,1.7099,1.7162,1.7164,1.7117,1.712,1.7121,1.7122,0,0,0,0,0,0,0,1.6908,1.6917,1.701,1.699,1.6992,1.6989,1.6995,1.7037,1.7058,1.7024,1.7024,1.7031,1.708,1.7096,1.7101,1.7165,1.7117,1.7121,1.7123,1.7125,1.7271,1.7273,0,0,0,0,0,0,1.6903,1.6914,1.7008,1.7012,1.6947,1.6992,1.7,1.7023,1.7058,1.7062,1.7032,1.7031,1.709,1.7096,1.7103,1.7165,1.7121,1.7125,1.7127,1.727,1.7271,1.7273,0,0,0,0,0,0,1.6901,1.6912,1.7005,1.6963,1.6975,1.6996,1.7022,1.7025,1.704,1.7064,1.7068,1.7045,1.7089,1.7097,1.7144,1.7167,1.7127,1.713,1.7268,1.727,1.7272,1.7292,0,0,0,0,0,0,1.6897,1.6911,1.6932,1.6963,1.6977,1.7047,1.7023,1.7027,1.7047,1.7046,1.7077,1.7081,1.7088,1.7139,1.7148,1.7172,1.7133,1.7266,1.7269,1.7272,1.7289,1.7295,1.7299,0,0,0,0,0,1.6892,1.6936,1.6933,1.6945,1.7004,1.7048,1.7056,1.7064,1.7049,1.707,1.7085,1.708,1.7164,1.7144,1.7154,1.7179,1.7264,1.7268,1.7271,1.7287,1.7294,1.7299,0,0,0,0,0,0,1.6906,1.694,1.6938,1.6993,1.7018,1.7047,1.7074,1.7071,1.7101,1.7098,1.7107,1.7114,1.716,1.7175,1.7152,1.7231,1.7212,1.7218,1.722,1.7226,1.7231,1.7226,1.7136,0,0,0,0,0,1.6916,1.695,1.6977,1.7023,1.7035,1.7052,1.7072,1.7076,1.7102,1.7113,1.7131,1.7156,1.7187,1.7208,1.7239,1.7292,1.7297,1.7314,1.7319,1.7323,1.7328,1.7354,1.7361,1.7285,1.7285,1.7285,0,0,1.6936,1.6958,1.6979,1.7026,1.7046,1.7079,1.7061,1.7098,1.7122,1.7118,1.7163,1.7177,1.7205,1.7254,1.7277,1.7268,1.735,1.7328,1.7331,1.7333,1.7358,1.7365,1.7372,1.7287,1.7287,1.7287,0,0,1.6989,1.701,1.7049,1.7069,1.7099,1.711,1.712,1.7149,1.7158,1.7203,1.72,1.7229,1.7284,1.7303,1.732,1.7378,1.7373,1.7388,1.7413,1.7439,1.7445,1.745,1.7468,1.7474,1.7393,1.7393,1.7393,0,1.7009,1.706,1.7069,1.7106,1.7125,1.7123,1.7161,1.718,1.7219,1.7231,1.7221,1.7288,1.7307,1.736,1.7373,1.7389,1.7397,1.7384,1.7443,1.7449,1.7454,1.7471,1.7478,1.7394,1.7394,1.7394,1.7394,0,1.7082,1.7118,1.7145,1.7182,1.7205,1.7242,1.7255,1.7277,1.7279,1.7291,1.7335,1.7358,1.7392,1.7405,1.7408,1.7457,1.745,1.7441,1.7421,1.7462,1.7478,1.7485,1.7396,1.7395,1.7395,1.7395,0,0,1.7145,1.7186,1.7196,1.7211,1.7244,1.727,1.7307,1.734,1.7357,1.7384,1.7412,1.7458,1.745,1.7469,1.7474,1.7496,1.7537,1.7485,1.7485,1.7491,1.759,1.7594,1.7602,1.7535,1.7536,1.7537,1.7586,0,1.7199,1.7264,1.7272,1.7328,1.7359,1.7357,1.7388,1.7411,1.7422,1.7449,1.7461,1.7492,1.7481,1.7492,1.7514,1.7527,1.7557,1.7524,1.756,1.7561,1.755,1.7611,1.7616,1.7662,1.7593,1.7594,1.7595,0,1.7271,1.7298,1.7358,1.7383,1.7397,1.7425,1.7454,1.7481,1.7506,1.7512,1.7533,1.7534,1.7569,1.7549,1.7597,1.7575,1.759,1.7598,1.76,1.7602,1.7579,1.7612,1.7677,1.7682,1.7606,1.7605,1.7604,0,1.7307,1.7359,1.7401,1.7415,1.7447,1.7466,1.748,1.7503,1.7522,1.7548,1.7559,1.7589,1.7605,1.7627,1.7636,1.7621,1.7682,1.7663,1.7686,1.7686,1.7698,1.7697,1.7763,1.7712,1.7711,1.7711,1.7711,0,1.7365,1.74,1.7417,1.7443,1.7482,1.7491,1.7529,1.7542,1.7562,1.7589,1.7589,1.7614,1.7625,1.7651,1.7658,1.7695,1.7703,1.7707,1.7708,1.7706,1.7705,1.7714,1.771,1.7713,1.7713,1.7712,1.7712,0,1.7411,1.7425,1.7469,1.7495,1.7503,1.753,1.7552,1.7575,1.7586,1.762,1.7628,1.7645,1.7675,1.7686,1.7724,1.7728,1.777,1.7769,1.7761,1.7761,1.7782,1.7779,1.7856,1.7865,1.7809,1.781,1.781,0,1.7446,1.7473,1.7502,1.752,1.7535,1.7564,1.7583,1.7592,1.7611,1.764,1.766,1.769,1.7714,1.7763,1.7777,1.7805,1.7804,1.7829,1.7808,1.7804,1.7801,1.7798,1.78,1.7832,1.7833,1.7833,1.7833,0,1.7506,1.751,1.7538,1.7567,1.7589,1.7612,1.7635,1.7649,1.7662,1.7683,1.7714,1.7733,1.777,1.7799,1.7827,1.7841,1.7838,1.784,1.7846,1.7843,1.7836,1.7837,1.7769,1.7838,1.7837,1.7837,1.7837,1.7837,1.7546,1.7569,1.7592,1.7622,1.7639,1.766,1.7683,1.7696,1.7722,1.7753,1.7757,1.779,1.7811,1.7849,1.7863,1.7888,1.7881,1.7891,1.7893,1.7895,1.7895,1.7834,1.7893,1.7893,1.7893,1.7893,1.7893,0,1.7603,1.7617,1.7645,1.7676,1.7698,1.7695,1.7719,1.7738,1.7767,1.7788,1.7812,1.7846,1.7874,1.789,1.7918,1.7934,1.7933,1.7941,1.7938,1.7941,1.7901,1.7891,1.7941,1.7941,1.7941,1.794,1.794,1.794,1.7635,1.7673,1.768,1.7726,1.774,1.7772,1.7786,1.7804,1.782,1.7859,1.7882,1.7892,1.7911,1.7939,1.7964,1.7968,1.7977,1.7985,1.7988,1.7949,1.7944,1.7939,1.793,1.7987,1.7987,1.8025,1.8026,1.8026]},{"header":{"parameterUnit":"m.s-1","parameterCategory":1,"la1":30.2991,"la2":30.254,"lo1":-89.0895,"lo2":-89.0444,"dy":0.0017,"dx":0.0017,"nx":28,"ny":28,"refTime":"2024-06-22T09:00:00:Z","depth":0,"parameterNumber":3,"parameterNumberName":"V-component_of_WINDS"},"data":[0,0,0,0,0,0,0,0,0,0,0,0,0,0,0,0,0,0,0,0,0,0,0,0,0,0,0,0,0,0,0,0,0,0,0,0,0,0,0,0,0,0,0,0,0,0,0,0,0,0,0,0,0,0,0,0,0,0,2.2773,2.2773,0,2.2815,2.2815,2.2816,2.2783,2.2781,2.278,2.2778,2.2819,2.2821,2.2823,0,0,0,0,0,0,0,0,0,0,0,0,0,2.2661,2.2663,2.2773,2.2773,2.2774,2.2815,2.2815,2.2816,2.2783,2.2781,2.2779,2.2778,2.2818,2.2821,2.2823,0,0,0,0,0,0,0,0,0,0,0,0,0,2.2707,2.2664,2.2773,2.2762,2.2762,2.2814,2.2815,2.2816,2.2783,2.2781,2.2779,2.2777,2.2817,2.282,2.2824,2.2888,0,0,2.2835,2.2836,0,0,0,0,0,0,0,0,2.2704,2.2711,2.2763,2.2763,2.2763,2.2791,2.279,2.284,2.2784,2.2775,2.2778,2.2776,2.2811,2.2815,2.2827,2.289,2.2891,2.2835,2.2837,2.2839,2.284,0,0,0,0,0,0,0,2.2701,2.2709,2.2789,2.2764,2.2764,2.2754,2.2759,2.28,2.2804,2.2776,2.2773,2.2779,2.281,2.2824,2.2828,2.2892,2.2835,2.2838,2.284,2.2842,2.3007,2.3009,0,0,0,0,0,0,2.2699,2.2706,2.2788,2.2791,2.2728,2.2758,2.2763,2.2784,2.2804,2.2805,2.2781,2.2777,2.2819,2.2824,2.2829,2.2904,2.2839,2.2842,2.2844,2.3004,2.3007,2.301,0,0,0,0,0,0,2.2697,2.2707,2.2786,2.2748,2.2757,2.2762,2.2787,2.2786,2.28,2.2808,2.2808,2.2794,2.2817,2.2824,2.2873,2.2905,2.2844,2.2847,2.3002,2.3005,2.3008,2.3055,0,0,0,0,0,0,2.2694,2.2706,2.2732,2.2749,2.276,2.2831,2.2789,2.2788,2.2806,2.2802,2.282,2.2821,2.2816,2.2868,2.2877,2.2909,2.285,2.2999,2.3003,2.3007,2.3051,2.3059,2.3067,0,0,0,0,0,2.269,2.2743,2.2733,2.2743,2.2792,2.2833,2.2839,2.2833,2.2809,2.2834,2.2838,2.282,2.29,2.2873,2.2883,2.2916,2.2997,2.3002,2.3007,2.3047,2.3058,2.3067,0,0,0,0,0,0,2.2729,2.2745,2.2734,2.2795,2.2813,2.2827,2.2858,2.2845,2.287,2.2865,2.2856,2.286,2.2911,2.2919,2.2889,2.2978,2.2944,2.2952,2.2972,2.2982,2.299,2.2987,2.2853,0,0,0,0,0,2.2745,2.2778,2.279,2.2842,2.2852,2.2854,2.2871,2.2865,2.2883,2.289,2.2899,2.2916,2.2945,2.2964,2.2991,2.3052,2.3054,2.3079,2.3087,2.3094,2.31,2.3131,2.3142,2.3026,2.3026,2.3026,0,0,2.2778,2.2791,2.2812,2.285,2.2863,2.2897,2.286,2.2897,2.2921,2.2896,2.2942,2.2949,2.2967,2.3022,2.3047,2.303,2.3133,2.3101,2.3106,2.3108,2.3137,2.3148,2.3158,2.303,2.3029,2.3028,0,0,2.2854,2.2868,2.2912,2.2926,2.2946,2.2947,2.2958,2.2974,2.2977,2.3024,2.3005,2.3033,2.3083,2.3096,2.311,2.3189,2.3173,2.3198,2.3241,2.3271,2.328,2.3288,2.3315,2.3325,2.3204,2.3205,2.3205,0,2.2892,2.2943,2.2936,2.2974,2.2991,2.297,2.3013,2.3026,2.3054,2.3065,2.3047,2.3108,2.3119,2.3175,2.3195,2.3207,2.3217,2.3196,2.328,2.3288,2.3295,2.332,2.3331,2.3207,2.3207,2.3207,2.3207,0,2.2987,2.3022,2.3055,2.3083,2.3103,2.3143,2.3142,2.3163,2.3155,2.3157,2.3203,2.3216,2.3244,2.3257,2.325,2.3312,2.3301,2.3281,2.3247,2.3309,2.3333,2.3342,2.3212,2.3211,2.321,2.3209,0,0,2.309,2.3113,2.3125,2.3136,2.3157,2.3183,2.3221,2.325,2.3267,2.3287,2.3318,2.336,2.3341,2.3356,2.335,2.3377,2.3437,2.3353,2.3353,2.3367,2.3504,2.3518,2.353,2.3426,2.3428,2.3429,2.3502,0,2.3166,2.3234,2.3229,2.3293,2.3324,2.3303,2.3337,2.3352,2.3355,2.338,2.3383,2.3412,2.3387,2.3395,2.3421,2.3424,2.3464,2.3419,2.3453,2.3455,2.3448,2.3542,2.3557,2.3625,2.3511,2.3513,2.3514,0,2.3264,2.3287,2.3354,2.3368,2.3381,2.3411,2.3436,2.3461,2.3477,2.3477,2.3493,2.3482,2.3519,2.3485,2.3535,2.3504,2.3518,2.3522,2.3524,2.3526,2.3488,2.3546,2.3647,2.3657,2.3529,2.3528,2.3527,0,2.333,2.3378,2.3424,2.3435,2.3453,2.3474,2.3482,2.3496,2.3513,2.3534,2.3544,2.3569,2.3582,2.3601,2.3596,2.3572,2.3647,2.3612,2.3646,2.3647,2.3663,2.3662,2.3767,2.3674,2.3673,2.3673,2.3673,0,2.3415,2.3457,2.3454,2.3482,2.3527,2.352,2.3564,2.357,2.3582,2.361,2.3593,2.3619,2.3612,2.3637,2.3633,2.3674,2.3681,2.3681,2.3679,2.3682,2.3681,2.369,2.3684,2.3676,2.3675,2.3675,2.3674,0,2.3497,2.3497,2.3545,2.3558,2.3562,2.3594,2.3604,2.363,2.3631,2.3666,2.3674,2.3675,2.3704,2.3701,2.3733,2.373,2.3781,2.3774,2.3776,2.3774,2.3808,2.3804,2.3921,2.3935,2.3834,2.3835,2.3836,0,2.3551,2.3582,2.3598,2.3615,2.3625,2.3654,2.367,2.3664,2.3682,2.3701,2.3724,2.3752,2.3773,2.382,2.3823,2.3847,2.384,2.3879,2.3843,2.3844,2.3838,2.3836,2.3838,2.3886,2.3887,2.3888,2.3888,0,2.3646,2.3644,2.3669,2.3694,2.3714,2.3733,2.3751,2.3766,2.376,2.3781,2.381,2.3827,2.3859,2.3886,2.3909,2.3915,2.3901,2.39,2.3909,2.3911,2.391,2.391,2.3794,2.3897,2.3896,2.3895,2.3895,2.3895,2.3714,2.374,2.3755,2.3783,2.3795,2.3811,2.3836,2.3839,2.3864,2.389,2.3885,2.3917,2.393,2.3959,2.3968,2.3993,2.3978,2.3992,2.3995,2.3998,2.4001,2.3907,2.3997,2.3997,2.3996,2.3996,2.3996,0,2.3807,2.3815,2.3841,2.3865,2.3887,2.3872,2.389,2.3908,2.3937,2.3951,2.3973,2.4005,2.4031,2.4036,2.4059,2.4078,2.4072,2.4084,2.4082,2.4084,2.4013,2.4003,2.4089,2.4089,2.4089,2.4089,2.4089,2.4089,2.3857,2.39,2.39,2.3948,2.3955,2.3987,2.3999,2.4013,2.4024,2.4061,2.4082,2.4086,2.4095,2.412,2.4142,2.4142,2.4151,2.4166,2.4164,2.4098,2.4089,2.408,2.407,2.4169,2.4169,2.4232,2.4233,2.4233]}]]